Location: Unspecified
(43.4354°N, 0.0000°E)
Time: 19:33:17
(UTC+00:00)

Transit 2A - All Passes

Search period start: 04 April 2026 00:00
Search period end: 14 April 2026 00:00
Orbit: 591 x 953 km, 66.7° (Epoch: 29 March)

Date Brightness Start Highest point End Pass type
(mag) Time Alt. Az. Time Alt. Az. Time Alt. Az.
4 Apr - 01:22:01 10° SSW 01:28:14 64° ESE 01:34:22 10° NE visible
4 Apr - 03:06:22 10° WSW 03:11:47 29° NW 03:17:03 10° NNE visible
4 Apr - 08:26:12 10° N 08:29:14 14° NNE 08:32:06 10° ENE daylight
4 Apr - 10:08:05 10° NNW 10:13:33 62° NE 10:18:26 10° SE daylight
4 Apr - 11:52:27 10° WNW 11:55:55 18° WSW 11:59:10 10° SW daylight
5 Apr - 00:46:01 10° S 00:51:56 44° ESE 00:57:48 10° NE visible
5 Apr - 02:29:16 10° WSW 02:35:08 39° NW 02:40:51 10° NNE visible
5 Apr - 04:17:54 10° NW 04:19:57 12° NNW 04:21:59 10° N visible
5 Apr - 07:50:35 10° N 07:52:19 11° NNE 07:54:00 10° NE daylight
5 Apr - 09:31:46 10° NNW 09:37:02 43° NE 09:41:45 10° ESE daylight
5 Apr - 11:15:21 10° NW 11:19:48 28° WSW 11:23:54 10° SSW daylight
6 Apr - 00:10:18 10° SSE 00:15:42 31° ESE 00:21:02 10° NE visible
6 Apr - 01:52:25 10° SW 01:58:34 53° NW 02:04:35 10° NNE visible
6 Apr - 03:39:40 10° WNW 03:43:02 15° NNW 03:46:19 10° N visible
6 Apr - 08:55:33 10° NNW 09:00:24 30° NE 09:04:50 10° ESE daylight
6 Apr - 10:38:34 10° NW 10:43:37 43° WSW 10:48:09 10° S daylight
6 Apr - 23:35:00 10° SSE 23:39:31 21° ESE 23:44:02 10° ENE visible
7 Apr - 01:15:46 10° SW 01:22:04 74° WNW 01:28:14 10° NNE visible
7 Apr - 03:01:53 10° W 03:06:11 19° NW 03:10:21 10° N visible
7 Apr - 08:19:23 10° N 08:23:42 22° NE 08:27:41 10° E daylight
7 Apr - 10:01:58 10° NW 10:07:20 67° WSW 10:12:07 10° SSE daylight
7 Apr - 23:00:22 10° SE 23:03:25 14° ESE 23:06:27 10° ENE visible
8 Apr - 00:39:19 10° SSW 00:45:39 81° ESE 00:51:50 10° NNE visible
8 Apr - 02:24:23 10° W 02:29:24 24° NW 02:34:16 10° NNE visible
8 Apr - 07:43:20 10° N 07:46:55 17° NE 07:50:16 10° ENE daylight
8 Apr - 09:25:31 10° NNW 09:30:57 82° ENE 09:35:48 10° SSE daylight
8 Apr - 11:10:50 10° WNW 11:13:02 13° WSW 11:15:10 10° SW daylight
9 Apr - 00:03:08 10° SSW 00:09:17 57° ESE 00:15:19 10° NE visible
9 Apr - 01:47:09 10° WSW 01:52:42 32° NW 01:58:06 10° NNE visible
9 Apr - 07:07:29 10° N 07:10:02 13° NNE 07:12:30 10° ENE daylight
9 Apr - 08:49:08 10° NNW 08:54:30 55° NE 08:59:16 10° SE daylight
9 Apr - 10:33:12 10° WNW 10:36:59 20° WSW 10:40:29 10° SSW daylight
9 Apr - 23:27:13 10° S 23:33:00 39° ESE 23:38:40 10° NE visible
10 Apr - 01:10:07 10° WSW 01:16:05 43° NW 01:21:52 10° NNE visible
10 Apr - 02:58:18 10° NW 03:00:46 12° NNW 03:03:12 10° N visible
10 Apr - 06:32:23 10° NNE 06:33:06 10° NNE 06:33:48 10° NNE daylight
10 Apr - 08:12:50 10° NNW 08:17:56 38° NE 08:22:31 10° ESE daylight
10 Apr - 09:56:13 10° NW 10:00:50 31° WSW 10:05:03 10° S daylight
10 Apr - 22:51:36 10° SSE 22:56:47 27° ESE 23:01:52 10° NE visible
11 Apr - 00:33:19 10° SW 00:39:33 59° NW 00:45:34 10° NNE visible
11 Apr - 02:20:13 10° WNW 02:23:52 16° NW 02:27:24 10° N visible
11 Apr - 07:36:38 10° NNW 07:41:16 27° NE 07:45:30 10° ESE daylight
11 Apr - 09:19:30 10° NW 09:24:36 49° WSW 09:29:12 10° S daylight
11 Apr - 22:16:28 10° SE 22:20:36 19° ESE 22:24:42 10° ENE visible
11 Apr - 23:56:44 10° SSW 00:03:03 82° WNW 00:09:13 10° NNE visible
12 Apr - 01:42:31 10° W 01:47:02 20° NW 01:51:25 10° N visible
12 Apr - 07:00:31 10° N 07:04:32 20° NE 07:08:15 10° E daylight
12 Apr - 08:42:56 10° NW 08:48:18 77° WSW 08:53:03 10° SSE daylight
12 Apr - 21:42:17 10° ESE 21:44:31 12° E 21:46:43 10° E visible
12 Apr - 23:20:22 10° SSW 23:26:38 72° ESE 23:32:46 10° NE visible
13 Apr - 01:05:05 10° W 01:10:17 26° NW 01:15:17 10° NNE visible
13 Apr - 06:24:31 10° N 06:27:42 15° NNE 06:30:43 10° ENE daylight
13 Apr - 08:06:30 10° NNW 08:11:53 71° ENE 08:16:40 10° SE daylight
13 Apr - 09:51:19 10° WNW 09:54:05 15° WSW 09:56:44 10° SW daylight
13 Apr - 22:44:14 10° S 22:50:18 50° ESE 22:56:13 10° NE visible
